| time (UTC) | temp F | wind direction | speed MPH | gust MPH | rain 1hr in | rain 24hr in | rain mn in | humidity % | barometer mb |
| 20260905034538 | 55 | 45 | 0.0 | 0.0 | 0.00 | 0.02 | 0.02 | 75 | 1017.3 |
| 20260905033036 | 56 | 38 | 0.0 | 1.0 | 0.00 | 0.02 | 0.02 | 71 | 1017.0 |
| 20260905031549 | 58 | 10 | 0.0 | 5.0 | 0.00 | 0.02 | 0.02 | 68 | 1016.9 |
| 20260905030037 | 59 | 320 | 2.0 | 9.0 | 0.00 | 0.02 | 0.02 | 68 | 1016.8 |
| 20260905023038 | 59 | 311 | 2.0 | 7.0 | 0.00 | 0.02 | 0.02 | 67 | 1016.8 |
| 20260905021538 | 60 | 313 | 2.0 | 10.0 | 0.00 | 0.02 | 0.02 | 66 | 1016.7 |
| 20260905020035 | 61 | 328 | 1.0 | 6.0 | 0.00 | 0.02 | 0.02 | 64 | 1016.5 |
| 20260905014531 | 62 | 316 | 1.0 | 6.0 | 0.00 | 0.02 | 0.02 | 62 | 1016.3 |
| 20260905013028 | 63 | 308 | 3.0 | 9.0 | 0.00 | 0.02 | 0.02 | 62 | 1016.0 |
| 20260905011535 | 62 | 295 | 4.0 | 10.0 | 0.00 | 0.02 | 0.02 | 62 | 1015.9 |
| 20260905010036 | 64 | 298 | 3.0 | 8.0 | 0.00 | 0.02 | 0.02 | 58 | 1015.8 |
| 20260905004531 | 66 | 307 | 4.0 | 11.0 | 0.00 | 0.02 | 0.02 | 56 | 1015.7 |
| 20260905001535 | 66 | 300 | 4.0 | 11.0 | 0.00 | 0.02 | 0.02 | 57 | 1015.6 |
| 20260905000032 | 64 | 297 | 4.0 | 10.0 | 0.00 | 0.02 | 0.02 | 60 | 1015.5 |
| 20260904234531 | 63 | 291 | 3.0 | 8.0 | 0.01 | 0.02 | 0.02 | 60 | 1015.5 |
| 20260904233035 | 63 | 266 | 6.0 | 11.0 | 0.02 | 0.02 | 0.02 | 63 | 1015.6 |
| 20260904231531 | 59 | 253 | 4.0 | 11.0 | 0.02 | 0.02 | 0.02 | 69 | 1015.7 |
| 20260904230106 | 59 | 222 | 5.0 | 13.0 | 0.02 | 0.02 | 0.01 | 70 | 1015.8 |
| 20260904224531 | 59 | 334 | 0.0 | 0.0 | 0.01 | 0.01 | 0.00 | 66 | 1015.5 |
| 20260904223037 | 61 | 326 | 1.0 | 7.0 | 0.00 | 0.00 | 0.00 | 60 | 1015.2 |
| 20260904221536 | 66 | 316 | 1.0 | 6.0 | 0.00 | 0.00 | 0.00 | 53 | 1015.1 |
| 20260904220030 | 67 | 292 | 1.0 | 6.0 | 0.00 | 0.00 | 0.00 | 52 | 1015.1 |
| 20260904214533 | 67 | 286 | 1.0 | 7.0 | 0.00 | 0.00 | 0.00 | 51 | 1015.0 |
| 20260904213030 | 66 | 331 | 1.0 | 6.0 | 0.00 | 0.00 | 0.00 | 51 | 1015.0 |
| 20260904211534 | 65 | 15 | 1.0 | 7.0 | 0.00 | 0.00 | 0.00 | 51 | 1015.1 |
| 20260904204534 | 66 | 356 | 1.0 | 8.0 | 0.00 | 0.00 | 0.00 | 53 | 1015.2 |
| 20260904203035 | 65 | 10 | 1.0 | 6.0 | 0.00 | 0.00 | 0.00 | 53 | 1015.3 |
| 20260904201533 | 64 | 329 | 1.0 | 5.0 | 0.00 | 0.00 | 0.00 | 54 | 1015.3 |
| 20260904200037 | 64 | 47 | 1.0 | 5.0 | 0.00 | 0.00 | 0.00 | 53 | 1015.3 |
| 20260904194606 | 65 | 43 | 1.0 | 9.0 | 0.00 | 0.00 | 0.00 | 54 | 1015.4 |
| 20260904193033 | 66 | 17 | 1.0 | 6.0 | 0.00 | 0.00 | 0.00 | 54 | 1015.6 |
| 20260904190030 | 65 | 18 | 1.0 | 7.0 | 0.00 | 0.00 | 0.00 | 59 | 1015.7 |
| 20260904184611 | 64 | 338 | 1.0 | 10.0 | 0.00 | 0.00 | 0.00 | 59 | 1015.7 |
| 20260904183037 | 63 | 42 | 2.0 | 7.0 | 0.00 | 0.00 | 0.00 | 61 | 1015.7 |
| 20260904181535 | 62 | 359 | 0.0 | 5.0 | 0.00 | 0.00 | 0.00 | 64 | 1015.7 |
| 20260904180034 | 63 | 327 | 2.0 | 7.0 | 0.00 | 0.00 | 0.00 | 64 | 1015.7 |
| 20260904174534 | 62 | 299 | 2.0 | 8.0 | 0.00 | 0.00 | 0.00 | 67 | 1015.6 |
| 20260904171536 | 60 | 322 | 0.0 | 5.0 | 0.00 | 0.00 | 0.00 | 73 | 1015.6 |
| 20260904164539 | 59 | 344 | 0.0 | 1.0 | 0.00 | 0.00 | 0.00 | 74 | 1015.6 |
| 20260904163038 | 60 | 343 | 0.0 | 4.0 | 0.00 | 0.00 | 0.00 | 76 | 1015.6 |
| 20260904161536 | 60 | 348 | 0.0 | 3.0 | 0.00 | 0.00 | 0.00 | 80 | 1015.6 |
| 20260904160037 | 61 | 339 | 0.0 | 3.0 | 0.00 | 0.00 | 0.00 | 86 | 1015.6 |
| 20260904154534 | 58 | 186 | 0.0 | 1.0 | 0.00 | 0.00 | 0.00 | 89 | 1015.5 |
| 20260904153038 | 54 | 164 | 1.0 | 4.0 | 0.00 | 0.00 | 0.00 | 90 | 1015.5 |
| 20260904151537 | 52 | 184 | 1.0 | 3.0 | 0.00 | 0.00 | 0.00 | 90 | 1015.2 |
| 20260904150038 | 51 | 202 | 0.0 | 1.0 | 0.00 | 0.00 | 0.00 | 91 | 1015.1 |
| 20260904143040 | 49 | 214 | 0.0 | 3.0 | 0.00 | 0.00 | 0.00 | 91 | 1014.9 |
| 20260904141546 | 49 | 194 | 0.0 | 3.0 | 0.00 | 0.00 | 0.00 | 91 | 1014.7 |
| 20260904140038 | 49 | 159 | 2.0 | 4.0 | 0.00 | 0.00 | 0.00 | 91 | 1014.7 |
| 20260904133037 | 48 | 170 | 0.0 | 3.0 | 0.00 | 0.00 | 0.00 | 90 | 1014.3 |
| 20260904130036 | 48 | 183 | 2.0 | 4.0 | 0.00 | 0.00 | 0.00 | 90 | 1014.0 |
| 20260904124536 | 49 | 189 | 1.0 | 3.0 | 0.00 | 0.00 | 0.00 | 90 | 1014.0 |
| 20260904123036 | 49 | 157 | 0.0 | 0.0 | 0.00 | 0.00 | 0.00 | 90 | 1014.0 |
| 20260904121537 | 49 | 157 | 0.0 | 1.0 | 0.00 | 0.00 | 0.00 | 90 | 1014.0 |
| 20260904114537 | 49 | 163 | 1.0 | 3.0 | 0.00 | 0.00 | 0.00 | 90 | 1013.8 |
| 20260904113036 | 50 | 180 | 1.0 | 3.0 | 0.00 | 0.00 | 0.00 | 90 | 1013.6 |
| 20260904111537 | 49 | 168 | 2.0 | 4.0 | 0.00 | 0.00 | 0.00 | 90 | 1013.5 |
| 20260904110038 | 49 | 159 | 3.0 | 5.0 | 0.00 | 0.00 | 0.00 | 90 | 1013.5 |
| 20260904104537 | 49 | 175 | 2.0 | 4.0 | 0.00 | 0.00 | 0.00 | 90 | 1013.3 |
| 20260904101536 | 48 | 168 | 3.0 | 6.0 | 0.00 | 0.00 | 0.00 | 91 | 1013.2 |
| 20260904100036 | 48 | 166 | 2.0 | 5.0 | 0.00 | 0.00 | 0.00 | 91 | 1013.0 |
| 20260904094537 | 48 | 157 | 0.0 | 1.0 | 0.00 | 0.00 | 0.00 | 91 | 1012.9 |
| 20260904093038 | 47 | 169 | 2.0 | 4.0 | 0.00 | 0.00 | 0.00 | 90 | 1012.9 |
| 20260904090036 | 48 | 178 | 0.0 | 3.0 | 0.00 | 0.00 | 0.00 | 90 | 1012.8 |
| 20260904084537 | 48 | 163 | 3.0 | 5.0 | 0.00 | 0.00 | 0.00 | 90 | 1012.8 |
| 20260904083036 | 48 | 168 | 3.0 | 5.0 | 0.00 | 0.00 | 0.00 | 90 | 1012.7 |
| 20260904080039 | 48 | 159 | 0.0 | 4.0 | 0.00 | 0.00 | 0.00 | 91 | 1012.8 |
| 20260904074536 | 48 | 161 | 1.0 | 6.0 | 0.00 | 0.00 | 0.00 | 91 | 1012.7 |
| 20260904073038 | 48 | 167 | 3.0 | 6.0 | 0.00 | 0.00 | 0.00 | 90 | 1012.6 |
| 20260904070038 | 47 | 159 | 3.0 | 7.0 | 0.00 | 0.00 | 0.00 | 89 | 1012.6 |
| 20260904064536 | 46 | 158 | 4.0 | 6.0 | 0.00 | 0.00 | 0.00 | 88 | 1012.6 |
| 20260904063037 | 47 | 189 | 2.0 | 5.0 | 0.00 | 0.01 | 0.00 | 88 | 1012.4 |
| 20260904060037 | 49 | 157 | 0.0 | 3.0 | 0.00 | 0.01 | 0.00 | 87 | 1012.2 |
| 20260904054537 | 50 | 159 | 2.0 | 4.0 | 0.00 | 0.01 | 0.00 | 87 | 1012.3 |
| 20260904053038 | 51 | 158 | 2.0 | 4.0 | 0.00 | 0.01 | 0.00 | 87 | 1012.4 |
| 20260904051536 | 51 | 155 | 2.0 | 5.0 | 0.00 | 0.01 | 0.00 | 87 | 1012.5 |
| 20260904050038 | 51 | 183 | 2.0 | 4.0 | 0.00 | 0.01 | 0.00 | 87 | 1012.4 |
| 20260904044538 | 51 | 244 | 0.0 | 3.0 | 0.00 | 0.01 | 0.00 | 87 | 1012.3 |
| 20260904043037 | 51 | 187 | 1.0 | 5.0 | 0.00 | 0.01 | 0.00 | 87 | 1012.4 |
| 20260904041537 | 51 | 187 | 2.0 | 5.0 | 0.00 | 0.01 | 0.00 | 87 | 1012.6 |
| 20260904040036 | 51 | 175 | 2.0 | 4.0 | 0.00 | 0.01 | 0.00 | 87 | 1012.6 |